| time (UTC) | temp C | wind direction | speed KPH | gust KPH | rain 1hr cm | rain 24hr cm | rain mn cm | humidity % | barometer mb |
| 20260510151514 | 13 | 328 | 0.0 | 0.0 | 0.00 | 0.00 | 0.30 | 98 | 1009.1 |
| 20260510150010 | 13 | 275 | 0.0 | 0.0 | 0.00 | 0.00 | 0.30 | 98 | 1009.3 |
| 20260510144506 | 13 | 272 | 0.0 | 0.0 | 0.00 | 0.00 | 0.30 | 97 | 1009.2 |
| 20260510143003 | 13 | 274 | 1.6 | 0.0 | 0.00 | 0.00 | 0.30 | 97 | 1009.2 |
| 20260510141558 | 12 | 270 | 8.0 | 0.0 | 0.00 | 0.00 | 0.30 | 97 | 1009.2 |
| 20260510140052 | 12 | 352 | 9.7 | 0.0 | 0.00 | 0.00 | 0.30 | 98 | 1008.8 |
| 20260510134548 | 12 | 220 | 11.3 | 0.0 | 0.00 | 0.00 | 0.30 | 98 | 1008.9 |
| 20260510133045 | 12 | 192 | 11.3 | 0.0 | 0.00 | 0.00 | 0.30 | 98 | 1009.0 |
| 20260510131541 | 12 | 188 | 12.9 | 0.0 | 0.00 | 0.00 | 0.30 | 98 | 1009.0 |
| 20260510130035 | 12 | 188 | 11.3 | 0.0 | 0.00 | 0.00 | 0.30 | 97 | 1009.3 |
| 20260510124531 | 12 | 352 | 11.3 | 0.0 | 0.00 | 0.00 | 0.30 | 96 | 1009.6 |
| 20260510123027 | 12 | 196 | 11.3 | 0.0 | 0.00 | 0.00 | 0.28 | 97 | 1009.7 |
| 20260510121522 | 12 | 353 | 12.9 | 0.0 | 0.00 | 0.00 | 0.25 | 97 | 1010.1 |
| 20260510120024 | 12 | 213 | 11.3 | 0.0 | 0.00 | 0.00 | 0.20 | 95 | 1010.4 |
| 20260510114521 | 12 | 292 | 14.5 | 0.0 | 0.00 | 0.00 | 0.15 | 95 | 1010.4 |
| 20260510113009 | 12 | 189 | 16.1 | 0.0 | 0.00 | 0.00 | 0.13 | 94 | 1010.3 |
| 20260510111504 | 12 | 354 | 12.9 | 0.0 | 0.00 | 0.00 | 0.13 | 95 | 1010.2 |
| 20260510110100 | 12 | 195 | 14.5 | 0.0 | 0.00 | 0.00 | 0.13 | 94 | 1009.9 |
| 20260510104602 | 12 | 354 | 12.9 | 0.0 | 0.00 | 0.00 | 0.10 | 92 | 1009.7 |
| 20260510103054 | 12 | 277 | 12.9 | 0.0 | 0.00 | 0.00 | 0.10 | 94 | 1009.8 |
| 20260510101547 | 12 | 354 | 14.5 | 0.0 | 0.00 | 0.00 | 0.10 | 93 | 1010.0 |
| 20260510100045 | 12 | 354 | 14.5 | 0.0 | 0.00 | 0.00 | 0.08 | 92 | 1010.2 |
| 20260510094546 | 12 | 354 | 14.5 | 0.0 | 0.00 | 0.00 | 0.08 | 91 | 1010.3 |
| 20260510093036 | 12 | 356 | 14.5 | 0.0 | 0.00 | 0.00 | 0.08 | 91 | 1010.5 |
| 20260510091534 | 12 | 356 | 16.1 | 0.0 | 0.00 | 0.00 | 0.05 | 89 | 1010.6 |
| 20260510090025 | 13 | 357 | 16.1 | 0.0 | 0.00 | 0.00 | 0.05 | 86 | 1010.5 |
| 20260510084521 | 13 | 356 | 14.5 | 0.0 | 0.00 | 0.00 | 0.05 | 82 | 1010.4 |
| 20260510083016 | 14 | 356 | 6.4 | 0.0 | 0.00 | 0.00 | 0.05 | 82 | 1010.1 |
| 20260510081512 | 13 | 356 | 4.8 | 0.0 | 0.00 | 0.00 | 0.05 | 82 | 1010.2 |
| 20260510080016 | 13 | 356 | 9.7 | 0.0 | 0.00 | 0.00 | 0.05 | 85 | 1010.3 |
| 20260510074503 | 13 | 274 | 9.7 | 0.0 | 0.00 | 0.00 | 0.05 | 83 | 1010.3 |
| 20260510073059 | 13 | 356 | 4.8 | 0.0 | 0.00 | 0.00 | 0.05 | 86 | 1010.3 |
| 20260510071554 | 13 | 356 | 6.4 | 0.0 | 0.00 | 0.00 | 0.05 | 85 | 1010.2 |
| 20260510070049 | 13 | 356 | 9.7 | 0.0 | 0.00 | 0.00 | 0.05 | 89 | 1010.3 |
| 20260510064549 | 12 | 192 | 0.0 | 0.0 | 0.00 | 0.00 | 0.05 | 87 | 1010.4 |
| 20260510063041 | 13 | 277 | 0.0 | 0.0 | 0.00 | 0.00 | 0.05 | 88 | 1010.5 |
| 20260510061537 | 13 | 277 | 8.0 | 0.0 | 0.00 | 0.00 | 0.05 | 88 | 1010.5 |
| 20260510060040 | 12 | 198 | 6.4 | 0.0 | 0.00 | 0.00 | 0.05 | 89 | 1010.3 |
| 20260510054536 | 12 | 356 | 0.0 | 0.0 | 0.00 | 0.00 | 0.05 | 91 | 1010.3 |
| 20260510053024 | 12 | 311 | 0.0 | 0.0 | 0.00 | 0.00 | 0.05 | 89 | 1010.2 |
| 20260510051521 | 12 | 356 | 0.0 | 0.0 | 0.00 | 0.00 | 0.05 | 90 | 1010.1 |
| 20260510050016 | 13 | 357 | 0.0 | 0.0 | 0.00 | 0.00 | 0.05 | 84 | 1010.0 |
| 20260510044512 | 13 | 258 | 0.0 | 0.0 | 0.00 | 0.00 | 0.05 | 84 | 1010.0 |
| 20260510043011 | 13 | 357 | 0.0 | 0.0 | 0.00 | 0.00 | 0.05 | 84 | 1010.1 |
| 20260510041503 | 13 | 357 | 0.0 | 0.0 | 0.00 | 0.00 | 0.05 | 85 | 1010.1 |
| 20260510040059 | 13 | 357 | 0.0 | 0.0 | 0.00 | 0.00 | 0.05 | 85 | 1010.1 |
| 20260510034554 | 13 | 260 | 0.0 | 0.0 | 0.00 | 0.00 | 0.05 | 86 | 1010.2 |
| 20260510033058 | 13 | 200 | 8.0 | 0.0 | 0.00 | 0.00 | 0.05 | 87 | 1010.4 |
| 20260510031545 | 13 | 356 | 12.9 | 0.0 | 0.00 | 0.00 | 0.05 | 84 | 1010.6 |
| 20260510030051 | 13 | 357 | 14.5 | 0.0 | 0.00 | 0.00 | 0.05 | 84 | 1010.7 |
| 20260510024537 | 13 | 0 | 19.3 | 0.0 | 0.00 | 0.00 | 0.03 | 81 | 1011.0 |
| 20260510023032 | 15 | 352 | 17.7 | 0.0 | 0.00 | 0.00 | 0.00 | 68 | 1010.6 |
| 20260510021528 | 15 | 277 | 12.9 | 0.0 | 0.00 | 0.00 | 0.00 | 66 | 1010.6 |
| 20260510020024 | 16 | 359 | 6.4 | 0.0 | 0.00 | 0.00 | 0.00 | 65 | 1010.7 |
| 20260510014521 | 16 | 359 | 8.0 | 0.0 | 0.00 | 0.00 | 0.00 | 64 | 1010.8 |
| 20260510013015 | 16 | 340 | 9.7 | 0.0 | 0.00 | 0.00 | 0.00 | 64 | 1010.9 |
| 20260510011511 | 16 | 263 | 9.7 | 0.0 | 0.00 | 0.00 | 0.00 | 64 | 1010.9 |
| 20260510010006 | 15 | 357 | 6.4 | 0.0 | 0.00 | 0.00 | 0.00 | 64 | 1011.4 |
| 20260510004501 | 15 | 357 | 9.7 | 0.0 | 0.00 | 0.00 | 0.00 | 65 | 1011.4 |
| 20260510003100 | 15 | 359 | 4.8 | 0.0 | 0.00 | 0.00 | 0.00 | 66 | 1011.4 |
| 20260510001553 | 15 | 357 | 3.2 | 0.0 | 0.00 | 0.00 | 0.00 | 67 | 1011.6 |
| 20260510000051 | 15 | 349 | 0.0 | 0.0 | 0.00 | 0.00 | 0.00 | 67 | 1011.8 |
| 20260509234544 | 15 | 158 | 0.0 | 0.0 | 0.00 | 0.00 | 0.00 | 69 | 1011.7 |
| 20260509233039 | 15 | 158 | 0.0 | 0.0 | 0.00 | 0.00 | 0.00 | 71 | 1011.9 |
| 20260509231540 | 15 | 158 | 0.0 | 0.0 | 0.00 | 0.00 | 0.00 | 69 | 1011.7 |
| 20260509230031 | 15 | 155 | 0.0 | 0.0 | 0.00 | 0.00 | 0.00 | 71 | 1011.9 |
| 20260509224525 | 15 | 155 | 0.0 | 0.0 | 0.00 | 0.00 | 0.00 | 70 | 1011.9 |
| 20260509223021 | 15 | 155 | 0.0 | 0.0 | 0.00 | 0.00 | 0.00 | 72 | 1011.9 |
| 20260509221517 | 15 | 154 | 0.0 | 0.0 | 0.00 | 0.00 | 0.00 | 73 | 1011.9 |
| 20260509220023 | 15 | 151 | 0.0 | 0.0 | 0.00 | 0.00 | 0.00 | 72 | 1012.0 |
| 20260509214509 | 15 | 157 | 0.0 | 0.0 | 0.00 | 0.00 | 0.00 | 74 | 1012.2 |
| 20260509213005 | 15 | 157 | 0.0 | 0.0 | 0.00 | 0.00 | 0.00 | 74 | 1012.2 |
| 20260509211600 | 15 | 157 | 0.0 | 0.0 | 0.00 | 0.00 | 0.00 | 75 | 1012.2 |
| 20260509210106 | 15 | 155 | 0.0 | 0.0 | 0.00 | 0.00 | 0.00 | 75 | 1012.6 |
| 20260509204552 | 15 | 154 | 0.0 | 0.0 | 0.00 | 0.00 | 0.00 | 75 | 1012.7 |
| 20260509203047 | 15 | 154 | 0.0 | 0.0 | 0.00 | 0.00 | 0.00 | 76 | 1012.8 |
| 20260509201544 | 15 | 151 | 0.0 | 0.0 | 0.00 | 0.00 | 0.00 | 77 | 1012.8 |
| 20260509200039 | 15 | 147 | 0.0 | 0.0 | 0.00 | 0.00 | 0.00 | 76 | 1013.0 |
| 20260509194536 | 15 | 147 | 0.0 | 0.0 | 0.00 | 0.00 | 0.00 | 75 | 1013.0 |
| 20260509193039 | 15 | 141 | 4.8 | 0.0 | 0.00 | 0.00 | 0.00 | 76 | 1012.8 |
| 20260509191534 | 15 | 117 | 6.4 | 0.0 | 0.00 | 0.00 | 0.00 | 75 | 1012.5 |
| 20260509190026 | 15 | 113 | 4.8 | 0.0 | 0.00 | 0.00 | 0.00 | 75 | 1012.3 |
| 20260509184519 | 15 | 109 | 4.8 | 0.0 | 0.00 | 0.00 | 0.00 | 75 | 1012.2 |
| 20260509183016 | 15 | 113 | 6.4 | 0.0 | 0.00 | 0.00 | 0.00 | 74 | 1012.1 |
| 20260509181512 | 15 | 112 | 4.8 | 0.0 | 0.00 | 0.00 | 0.00 | 75 | 1012.0 |
| 20260509180009 | 15 | 97 | 4.8 | 0.0 | 0.00 | 0.00 | 0.00 | 74 | 1012.2 |
| 20260509174503 | 15 | 127 | 1.6 | 0.0 | 0.00 | 0.00 | 0.00 | 70 | 1012.0 |
| 20260509173059 | 16 | 128 | 1.6 | 0.0 | 0.00 | 0.00 | 0.00 | 69 | 1012.0 |
| 20260509171555 | 16 | 110 | 0.0 | 0.0 | 0.00 | 0.00 | 0.00 | 66 | 1011.9 |
| 20260509170053 | 16 | 106 | 3.2 | 0.0 | 0.00 | 0.00 | 0.00 | 63 | 1011.8 |
| 20260509164546 | 16 | 96 | 3.2 | 0.0 | 0.00 | 0.00 | 0.00 | 61 | 1011.9 |
| 20260509163041 | 17 | 93 | 1.6 | 0.0 | 0.00 | 0.00 | 0.00 | 59 | 1012.1 |
| 20260509161537 | 17 | 85 | 1.6 | 0.0 | 0.00 | 0.00 | 0.00 | 60 | 1012.2 |
| 20260509160037 | 17 | 104 | 1.6 | 0.0 | 0.00 | 0.00 | 0.00 | 57 | 1012.4 |
| 20260509154529 | 17 | 64 | 3.2 | 0.0 | 0.00 | 0.00 | 0.00 | 58 | 1012.6 |
| 20260509153032 | 16 | 73 | 0.0 | 0.0 | 0.00 | 0.00 | 0.00 | 59 | 1012.7 |